Location: Mahannah Oil Field
(37.4664°N, 96.6003°W)
Time: 10:32:21
(UTC+00:00)

Altair - Pass Details

Date: 29 January 2021
Orbit: 1501 x 1682 km, 47.2° (Epoch: 24 February)

Event Time Altitude Azimuth Distance (km) Brightness Sun altitude
Exits shadow 09:00:17 31° 79° (ENE) 2,627 8.9 -53.5°
Drops below altitude 10° 09:05:06 10° 64° (ENE) 3,933 10.1 -52.6°
Sets 09:08:24 0° 59° (ENE) 4,933 10.7 -52.0°
